Regional Weather Roundup
Issued by NWS

Home | Current Version | Previous Version | Graphics & Text | Print | Product List | Glossary On
Versions: 1 2 3 4 5 6 7 8 9 10 11 12 13 14 15 16 17 18 19 20 21 22 23 24 25 26 27 28 29 30 31 32 33 34 35 36 37 38 39 40 41 42 43 44 45 46 47 48 49 50
000
ASUS45 KBOU 291807
RWRCO

WEATHER ROUNDUP FOR COLORADO
NATIONAL WEATHER SERVICE DENVER/BOULDER CO
1200 PM MDT MON SEP 29 2014

NOTE: "FAIR" INDICATES FEW OR NO CLOUDS BELOW 12000 FEET WITH NO
SIGNIFICANT WEATHER AND/OR OBSTRUCTIONS TO VISIBILITY.

COZ001>005-013-030-031-291900-
...NORTHWEST COLORADO...

CITY           SKY/WX    TMP DP  RH WIND       PRES   REMARKS
CRAIG          PTSUNNY   57  47  69 W3        30.03F
HAYDEN         PTSUNNY   55  43  62 N5        30.03F
MEEKER         CLOUDY    58  38  47 SW14G22   30.04F
MOUNT WERNER   NOT AVBL
STEAMBOAT SPGS PTSUNNY   56  44  64 CALM      30.04
WALDEN         PTSUNNY   54  36  50 S9G16     30.09F
$$

COZ006>008-011-291900-
...WEST CENTRAL VALLEYS...

CITY           SKY/WX    TMP DP  RH WIND       PRES   REMARKS
GRAND JUNCTION CLOUDY    56  52  86 NW10      29.98F
MONTROSE       CLOUDY    58  50  75 NW9       30.01F
EAGLE          PTSUNNY   55  46  71 CALM      30.05F
RIFLE          CLOUDY    57  47  69 W6        30.00F
DELTA          RAIN      63  53  70 CALM      29.98F
NUCLA          TSTM      54  48  82 W5        30.06F
$$

COZ017>023-064>068-291900-
...SOUTHWEST COLORADO...

CITY           SKY/WX    TMP DP  RH WIND       PRES   REMARKS
DURANGO        LGT RAIN  48  47  96 NE9       30.10F
CORTEZ         SUNNY     62  43  49 S18       30.02F
PAGOSA SPRINGS CLOUDY    50  46  84 W15G25    30.13F
TELLURIDE      DRIZZLE  N/A N/A N/A S5G13     30.14S
WOLF CREEK PAS   N/A    N/A N/A N/A SW15      30.25F
$$

COZ009-010-012-014-032>034-037-058>063-291900-
...CENTRAL COLORADO...

CITY           SKY/WX    TMP DP  RH WIND       PRES   REMARKS
ASPEN          PTSUNNY   55  42  61 N3        30.06F
BUENA VISTA    PTSUNNY   56  42  57 E17       30.10F
COPPER MTN     PTSUNNY   46  30  53 SE16G23   30.26F
BERTHOUD PASS  CLOUDY    36  34  93 SE28G33   30.31F
COTTONWOOD PAS CLOUDY    52  39  62 SE9G17    30.18F
GUNNISON       PTSUNNY   52  41  66 SW8G17    30.11S
KREMMLING      PTSUNNY   59  37  44 NW3       30.06F
LEADVILLE      PTSUNNY   50  37  61 S13       30.14
SALIDA         PTSUNNY   55  46  70 NW5       30.15F
SUNLIGHT       CLOUDY    45  39  81 CALM      30.22F
WILKERSON PASS NOT AVBL
$$

COZ069>075-291900-
...SAN LUIS VALLEY/SANGRE DE CRISTO MOUNTAINS...

CITY           SKY/WX    TMP DP  RH WIND       PRES   REMARKS
ALAMOSA        MOSUNNY   65  43  44 S21G30    30.06F
LA VETA PASS   MOSUNNY   55  37  50 S15G26    30.24F
SAGUACHE       CLOUDY    52  46  82 S7        30.11F
$$

COZ035-036-038>040-291900-
...NORTHERN COLORADO FRONT RANGE...

CITY           SKY/WX    TMP DP  RH WIND       PRES   REMARKS
DENVER INTL AP PTSUNNY   63  47  55 NE7       30.02F
DMNS CITY PARK   N/A     62  49  63 SE3G9     30.01F
AURORA         PTSUNNY   64  49  59 NE8       30.03F
FRONT RANGE AP PTSUNNY   66  52  59 NE8       30.03F
ERIE MUNI ARPT PTSUNNY   64  49  58 NE7       30.02
BOULDER MUN AP CLOUDY    61  50  67 CALM      30.01F
CENTENNIAL     PTSUNNY   59  50  72 E10       30.03F
BROOMFIELD     PTSUNNY   61  50  67 NE5       30.03F
FORT COLLINS   MOSUNNY   63  46  55 SW7       30.03F
LONGMONT       CLOUDY    65  51  60 E3        30.03
$$

COZ041-046-047-076>085-087-088-291900-
...PIKES PEAK/PALMER DIVIDE AND SOUTHERN FOOTHILLS...

CITY           SKY/WX    TMP DP  RH WIND       PRES   REMARKS
COLO. SPRINGS  MOSUNNY   71  48  43 S16G22    30.03F
A. F. ACADEMY  MOSUNNY   67  47  48 S13       30.03F
ELLICOTT       NOT AVBL
FALCON         MOSUNNY   67  43  41 SE9G21    30.07F
FORT CARSON    MOSUNNY   70  50  48 SE12      30.00F
LIMON          MOSUNNY   67  52  58 VRB5      30.01F
MONUMENT HILL  PTSUNNY   55  48  76 N12       30.07F
TRINIDAD       SUNNY     76  47  35 S18G28    30.00F
$$

COZ042>045-048>051-090-091-291900-
...NORTHEAST COLORADO...

CITY           SKY/WX    TMP DP  RH WIND       PRES   REMARKS
GREELEY ARPT   MOSUNNY   64  46  52 CALM      30.02F
AKRON          CLOUDY    59  55  87 CALM      30.00F
BURLINGTON     MOSUNNY   77  54  44 S20G28    29.98F
WRAY           CLOUDY    74  56  52 S5        29.96F
STERLING       CLOUDY    68  59  73 E5        29.97
HOLYOKE        MOSUNNY   77  57  50 SE12G17   29.97
FORT MORGAN    MOSUNNY   65  54  65 E10       30.00S
$$

COZ086-089-092>099-291900-
...SOUTHEAST COLORADO...

CITY           SKY/WX    TMP DP  RH WIND       PRES   REMARKS
PUEBLO         SUNNY     74  52  46 E10       29.93F
LA JUNTA       MOSUNNY   82  51  34 S9        29.92F
LAMAR          SUNNY     83  54  36 S21G33    29.91F
SPRINGFIELD      N/A     76  56  49 S20G33    30.02S
$$



USA.gov is the U.S. government's official web portal to all federal, state and local government web resources and services.